DW7537 Bellevue WA US current weather conditions

sailwx.info

Wind from 213 at 3 knots gusting 2

Air temperature 21.7° C
Dewpoint 16.4° C

Last reported at 2020-Aug-05 16:10 UTC.
Time now 2020-Aug-05 17:08 UTC

Location: N 47°33' W 122°08'.
View on Google Maps.

See reports from other nearby stations

  
Tides and Currents Weather Stations Pressure Air Temp Water Temp Dewpoint Dewpoint Depression Visibility Wind Speed Wind Dir Waves Ship Positions
date/time (UTC)wind fromknots sea level pressurealtimeterstation pressurevisibilityair tempwater tempwave heightnotes
2020-Aug-05 16:10 213 3 gusting 2 21.7
2020-Aug-05 16:00 188 3 gusting 5 21.7
2020-Aug-05 15:50 212 4 gusting 6 21.1
2020-Aug-05 15:40 190 5 gusting 5 21.1
2020-Aug-05 15:30 188 4 gusting 6 21.1
2020-Aug-05 15:20 192 3 gusting 5 20.6
2020-Aug-05 15:10 222 5 gusting 4 20.0
2020-Aug-05 15:00 218 4 gusting 6 20.0
2020-Aug-05 14:50 186 4 gusting 7 19.4
2020-Aug-05 14:40 188 4 gusting 7 18.9
2020-Aug-05 14:30 172 4 gusting 7 18.9
2020-Aug-05 14:20 159 5 gusting 6 18.3
2020-Aug-05 14:10 173 5 gusting 8 17.8
2020-Aug-05 14:00 145 4 gusting 6 17.2
2020-Aug-05 13:50 180 4 gusting 7 17.2
2020-Aug-05 13:40 188 4 gusting 6 17.2
2020-Aug-05 13:30 194 2 gusting 3 16.7
2020-Aug-05 13:20 168 4 gusting 5 16.7
2020-Aug-05 13:10 156 0 gusting 3 16.7
2020-Aug-05 13:00 101 16.7
2020-Aug-05 12:50 101 16.7
2020-Aug-05 12:40 101 16.7
2020-Aug-05 12:30 101 16.7
2020-Aug-05 12:20 101 16.7
2020-Aug-05 12:10 101 0 gusting 1 16.7
2020-Aug-05 12:00 112 1 gusting 1 16.7
2020-Aug-05 11:50 105 1 gusting 1 16.7
2020-Aug-05 11:40 103 1 gusting 2 17.2
2020-Aug-05 11:30 088 1 gusting 3 16.7
2020-Aug-05 11:20 096 1 gusting 2 17.2
2020-Aug-05 11:10 101 2 gusting 3 17.2
2020-Aug-05 11:00 088 2 gusting 3 17.2
2020-Aug-05 10:50 090 2 gusting 4 17.2
2020-Aug-05 10:40 091 2 gusting 4 17.2
2020-Aug-05 10:30 092 2 gusting 3 17.2
2020-Aug-05 10:20 102 2 gusting 3 17.2
2020-Aug-05 10:10 091 2 gusting 4 17.2
2020-Aug-05 10:00 089 2 gusting 3 17.2
2020-Aug-05 09:50 097 3 gusting 4 17.2
2020-Aug-05 09:40 101 2 gusting 3 17.2
2020-Aug-05 09:30 101 1 gusting 2 17.2
2020-Aug-05 09:20 086 2 gusting 1 17.2
2020-Aug-05 09:10 102 1 gusting 3 17.2
2020-Aug-05 09:00 103 1 gusting 3 17.2
2020-Aug-05 08:50 090 1 gusting 3 17.2
2020-Aug-05 08:40 093 2 gusting 3 17.2
2020-Aug-05 08:30 090 2 gusting 3 17.2
2020-Aug-05 08:20 094 1 gusting 1 17.2
2020-Aug-05 08:10 104 1 gusting 3 17.8
2020-Aug-05 08:00 090 2 gusting 3 17.8
2020-Aug-05 07:50 069 1 gusting 2 17.8
2020-Aug-05 07:40 097 2 gusting 1 17.8
2020-Aug-05 07:30 088 2 gusting 4 17.8
2020-Aug-05 07:20 090 2 gusting 2 18.3
2020-Aug-05 07:10 097 1 gusting 7 18.3
2020-Aug-05 07:00 084 1 gusting 4 18.3
2020-Aug-05 06:50 071 1 gusting 2 18.9
2020-Aug-05 06:40 040 1 gusting 2 18.9
2020-Aug-05 06:30 092 1 gusting 5 18.9
2020-Aug-05 06:20 089 1 gusting 1 19.4
2020-Aug-05 06:10 106 1 gusting 4 19.4
2020-Aug-05 06:00 104 1 gusting 3 20.0
2020-Aug-05 05:50 039 1 gusting 5 20.0
2020-Aug-05 05:40 077 1 gusting 1 20.0
2020-Aug-05 05:30 090 0 gusting 2 20.6
2020-Aug-05 05:20 071 1 gusting 2 20.6
2020-Aug-05 05:10 044 1 gusting 3 21.1
2020-Aug-05 05:00 053 2 gusting 4 21.1
2020-Aug-05 04:50 005 1 21.1
2020-Aug-05 04:40 005 1 gusting 3 21.7
2020-Aug-05 04:30 350 1 gusting 3 21.7
2020-Aug-05 04:20 311 2 gusting 4 22.2
2020-Aug-05 04:10 306 1 gusting 2 22.2
2020-Aug-05 04:00 287 2 gusting 4 22.8
2020-Aug-05 03:50 294 3 gusting 5 22.8
2020-Aug-05 03:40 309 2 gusting 5 23.3
2020-Aug-05 03:30 278 2 gusting 7 23.3
2020-Aug-05 03:20 306 3 gusting 5 23.9
2020-Aug-05 03:10 306 3 gusting 3 23.9
2020-Aug-05 03:00 309 3 gusting 2 24.4
2020-Aug-05 02:50 288 4 gusting 5 24.4
2020-Aug-05 02:40 286 4 gusting 6 25.0
2020-Aug-05 02:30 295 5 gusting 5 25.0
2020-Aug-05 02:20 289 4 gusting 8 25.6
2020-Aug-05 02:10 297 4 gusting 7 25.6
2020-Aug-05 02:00 275 4 gusting 5 25.6
2020-Aug-05 01:50 300 4 gusting 6 26.1
2020-Aug-05 01:40 298 5 gusting 5 26.1
2020-Aug-05 01:30 297 4 gusting 7 26.1
2020-Aug-05 01:20 289 4 gusting 7 26.1
2020-Aug-05 01:10 320 4 gusting 9 26.1
2020-Aug-05 01:00 306 4 gusting 6 26.1
2020-Aug-05 00:50 250 3 gusting 4 26.1
2020-Aug-05 00:40 343 4 gusting 6 26.7
2020-Aug-05 00:30 310 4 gusting 4 26.7
2020-Aug-05 00:20 299 4 gusting 4 26.7
2020-Aug-05 00:10 292 4 gusting 5 27.2
2020-Aug-05 00:00 321 4 gusting 10 27.2
2020-Aug-04 23:50 296 4 gusting 7 27.2
2020-Aug-04 23:40 312 4 gusting 6 27.2
2020-Aug-04 23:30 315 4 gusting 7 27.2
2020-Aug-04 23:20 318 4 gusting 5 27.8
2020-Aug-04 23:10 284 3 gusting 8 27.8
2020-Aug-04 23:00 355 4 gusting 5 27.8
2020-Aug-04 22:50 321 6 gusting 10 27.8
2020-Aug-04 22:40 306 6 gusting 5 27.8
2020-Aug-04 22:30 302 4 gusting 9 28.3
2020-Aug-04 22:20 360 5 gusting 6 28.3
2020-Aug-04 22:10 326 5 gusting 7 27.8
2020-Aug-04 22:00 299 4 gusting 6 27.8
2020-Aug-04 21:50 322 5 gusting 10 27.8
2020-Aug-04 21:40 319 5 gusting 7 27.8
2020-Aug-04 21:30 317 5 gusting 6 27.8
2020-Aug-04 21:20 315 5 gusting 8 27.8
2020-Aug-04 21:10 298 6 gusting 3 27.8
2020-Aug-04 21:00 276 6 gusting 7 27.8
2020-Aug-04 20:50 296 5 gusting 8 27.8
2020-Aug-04 20:40 314 6 gusting 9 27.2
2020-Aug-04 20:30 209 3 gusting 3 27.2
2020-Aug-04 20:20 264 3 gusting 5 27.2
2020-Aug-04 20:10 269 4 gusting 8 26.7
2020-Aug-04 20:00 005 3 gusting 2 26.7
2020-Aug-04 19:50 305 3 gusting 8 26.7
2020-Aug-04 19:40 239 3 gusting 2 26.1
2020-Aug-04 19:30 300 3 gusting 11 26.1
2020-Aug-04 19:20 252 4 gusting 4 26.1
2020-Aug-04 19:10 325 3 gusting 7 26.1
2020-Aug-04 19:00 306 3 gusting 4 25.6
2020-Aug-04 18:50 311 3 gusting 5 25.6
2020-Aug-04 18:40 324 3 gusting 5 25.6
2020-Aug-04 18:30 327 4 gusting 6 25.6
2020-Aug-04 18:20 303 3 gusting 3 25.0
2020-Aug-04 18:10 299 3 gusting 5 24.4
2020-Aug-04 18:00 308 4 gusting 9 23.9
2020-Aug-04 17:50 275 1 gusting 2 23.9
2020-Aug-04 17:40 312 3 gusting 6 23.9
2020-Aug-04 17:30 290 3 gusting 4 23.3
2020-Aug-04 17:20 293 2 gusting 4 22.8
2020-Aug-04 17:10 288 2 gusting 3 22.8
2020-Aug-04 17:00 292 2 gusting 4 22.2
2020-Aug-04 16:50 213 3 gusting 2 22.2
2020-Aug-04 16:40 302 2 gusting 5 21.7
2020-Aug-04 16:30 355 1 gusting 1 21.1
2020-Aug-04 16:20 323 2 gusting 3 21.1
2020-Aug-04 16:10 071 2 gusting 3 20.0
2020-Aug-04 16:00 304 3 gusting 4 20.0
2020-Aug-04 15:50 298 2 gusting 3 19.4
2020-Aug-04 15:40 328 1 gusting 1 18.9
2020-Aug-04 15:30 300 2 gusting 4 18.9
2020-Aug-04 15:20 303 2 gusting 5 18.9
2020-Aug-04 15:10 315 2 gusting 3 18.3
2020-Aug-04 15:00 321 1 gusting 2 17.8
2020-Aug-04 14:50 321 0 gusting 1 17.2
2020-Aug-04 14:40 321 0 gusting 1 16.7
2020-Aug-04 14:30 321 0 gusting 1 16.1
2020-Aug-04 14:20 321 0 gusting 1 16.1
2020-Aug-04 14:10 321 0 gusting 1 15.6
2020-Aug-04 14:00 321 15.6
2020-Aug-04 13:50 321 15.6
2020-Aug-04 13:40 321 15.6
2020-Aug-04 13:30 321 15.6
2020-Aug-04 13:20 321 1 gusting 1 15.6
2020-Aug-04 13:10 350 1 gusting 3 15.6
2020-Aug-04 13:00 350 0 gusting 1 15.6
2020-Aug-04 12:50 350 0 gusting 2 15.6
2020-Aug-04 12:40 350 2 gusting 2 15.6
2020-Aug-04 12:30 355 2 gusting 2 15.6
2020-Aug-04 12:20 049 15.6
2020-Aug-04 12:10 049 0 gusting 2 15.6
2020-Aug-04 12:00 049 16.1
2020-Aug-04 11:50 049 16.1
2020-Aug-04 11:40 049 16.1
2020-Aug-04 11:30 055 0 16.1
2020-Aug-04 11:20 055 1 gusting 3 16.1
2020-Aug-04 11:10 055 0 gusting 0 16.1
2020-Aug-04 11:00 057 0 gusting 0 16.1
2020-Aug-04 10:50 057 0 gusting 1 16.1
2020-Aug-04 10:40 067 0 gusting 2 16.1
2020-Aug-04 10:30 091 0 gusting 0 16.7
2020-Aug-04 10:20 091 1 gusting 0 16.7
2020-Aug-04 10:10 088 1 gusting 2 16.7
2020-Aug-04 10:00 092 2 gusting 3 16.7
2020-Aug-04 09:50 094 1 gusting 2 16.7
2020-Aug-04 09:40 094 1 gusting 2 16.7
2020-Aug-04 09:30 107 1 gusting 2 16.7
2020-Aug-04 09:20 088 2 gusting 1 16.7
2020-Aug-04 09:10 088 1 gusting 5 16.7
2020-Aug-04 09:00 094 1 gusting 4 17.2
2020-Aug-04 08:50 102 1 gusting 3 17.2
2020-Aug-04 08:40 084 0 17.2
2020-Aug-04 08:30 091 1 gusting 3 17.2
2020-Aug-04 08:20 078 2 gusting 0 17.2
2020-Aug-04 08:10 053 0 gusting 2 17.8
2020-Aug-04 08:00 095 1 gusting 2 17.8
2020-Aug-04 07:50 088 1 gusting 4 17.8
2020-Aug-04 07:40 086 1 gusting 1 17.8
2020-Aug-04 07:30 037 0 gusting 6 17.8
2020-Aug-04 07:20 047 0 gusting 3 17.8
2020-Aug-04 07:10 099 0 gusting 3 18.3
2020-Aug-04 07:00 038 1 gusting 9 18.3
2020-Aug-04 06:50 047 1 gusting 3 18.3
2020-Aug-04 06:40 069 0 gusting 2 18.3
2020-Aug-04 06:30 075 1 gusting 3 18.9
2020-Aug-04 06:20 086 0 gusting 2 18.9
2020-Aug-04 06:10 098 0 gusting 2 18.9
2020-Aug-04 06:00 074 1 gusting 0 19.4
2020-Aug-04 05:50 071 1 gusting 3 19.4
2020-Aug-04 05:40 017 1 gusting 5 19.4
2020-Aug-04 05:30 044 2 gusting 2 20.0
2020-Aug-04 05:20 040 1 gusting 5 20.0
2020-Aug-04 05:10 036 1 gusting 2 20.0
2020-Aug-04 05:00 360 2 gusting 2 20.6
2020-Aug-04 04:50 026 1 gusting 1 20.6
2020-Aug-04 04:40 011 2 gusting 2 20.6
2020-Aug-04 04:30 015 2 gusting 3 21.1
2020-Aug-04 04:20 005 1 gusting 4 21.1
2020-Aug-04 04:10 035 1 gusting 2 21.1
2020-Aug-04 04:00 313 1 gusting 1 21.7
2020-Aug-04 03:50 333 0 gusting 3 21.7
2020-Aug-04 03:40 307 2 gusting 3 21.7
2020-Aug-04 03:30 316 3 gusting 6 22.2
2020-Aug-04 03:20 313 3 gusting 4 22.2
2020-Aug-04 03:10 311 4 gusting 6 22.2
2020-Aug-04 03:00 294 5 gusting 7 22.8
2020-Aug-04 02:50 292 4 gusting 4 22.8
2020-Aug-04 02:40 302 4 gusting 4 23.3
2020-Aug-04 02:30 288 5 gusting 6 23.3
2020-Aug-04 02:20 304 5 gusting 8 23.9
2020-Aug-04 02:10 310 5 gusting 8 23.9
2020-Aug-04 02:00 315 4 gusting 6 24.4
2020-Aug-04 01:50 301 5 gusting 10 24.4
2020-Aug-04 01:40 298 5 gusting 7 25.0
2020-Aug-04 01:30 295 3 gusting 5 25.0
2020-Aug-04 01:20 296 4 gusting 7 25.0
2020-Aug-04 01:10 290 3 gusting 4 25.0
2020-Aug-04 01:00 316 2 gusting 4 25.6
2020-Aug-04 00:50 264 3 gusting 4 25.6
2020-Aug-04 00:40 308 3 gusting 3 25.6
2020-Aug-04 00:30 221 3 gusting 5 25.6
2020-Aug-04 00:20 225 4 gusting 6 26.1
2020-Aug-04 00:10 262 6 gusting 6 26.1
2020-Aug-04 00:00 297 5 gusting 5 26.1
2020-Aug-03 23:50 294 3 gusting 6 26.1
2020-Aug-03 23:40 293 4 gusting 6 26.7
2020-Aug-03 23:30 234 4 gusting 7 26.7
2020-Aug-03 23:20 291 5 gusting 6 26.7
2020-Aug-03 23:10 294 5 gusting 7 26.7
2020-Aug-03 23:00 273 5 gusting 6 26.7
2020-Aug-03 22:50 253 4 gusting 5 26.7
2020-Aug-03 22:40 240 4 gusting 6 26.7
2020-Aug-03 22:30 244 4 gusting 9 25.6
2020-Aug-03 22:20 346 3 gusting 3 25.0
2020-Aug-03 22:10 271 1 gusting 2 25.6
2020-Aug-03 22:00 241 3 gusting 4 25.6
2020-Aug-03 21:50 243 1 gusting 3 25.6
2020-Aug-03 21:40 298 1 gusting 5 25.6
2020-Aug-03 21:30 219 2 gusting 4 26.1
2020-Aug-03 21:20 277 2 gusting 4 26.1
2020-Aug-03 21:10 265 4 gusting 3 25.6
2020-Aug-03 21:00 317 3 gusting 2 25.6
2020-Aug-03 20:50 258 3 gusting 4 25.6
2020-Aug-03 20:40 266 3 gusting 5 26.1
2020-Aug-03 20:30 236 4 gusting 7 25.6
2020-Aug-03 20:20 194 2 gusting 5 25.6
2020-Aug-03 20:10 142 3 gusting 2 25.6
2020-Aug-03 20:00 229 4 gusting 6 25.6
2020-Aug-03 19:50 220 3 gusting 5 24.4
2020-Aug-03 19:40 165 2 gusting 6 24.4
2020-Aug-03 19:30 232 2 gusting 4 24.4
2020-Aug-03 19:20 258 3 gusting 6 23.9
2020-Aug-03 19:10 065 2 gusting 4 23.9
2020-Aug-03 19:00 188 2 gusting 1 23.3
2020-Aug-03 18:50 188 2 gusting 4 22.8
2020-Aug-03 18:40 180 2 gusting 6 22.8
2020-Aug-03 18:30 233 4 gusting 6 22.2
2020-Aug-03 18:20 275 2 gusting 4 21.7
2020-Aug-03 18:10 138 1 gusting 5 21.7
2020-Aug-03 18:00 202 3 gusting 6 21.1
2020-Aug-03 17:50 176 2 gusting 6 21.7
2020-Aug-03 17:40 245 2 gusting 6 21.1
2020-Aug-03 17:30 227 3 gusting 8 21.1
2020-Aug-03 17:20 175 3 gusting 5 21.1
2020-Aug-03 17:10 212 3 gusting 6 20.6
2020-Aug-03 17:00 242 5 gusting 5 20.0